GW4220 Weather Reports


time (UTC)temp
F
wind
direction
speed
knots
gust
knots
rain 1hr
in
rain 24hr
in
rain mn
in
humidity
%
barometer
mb
20260510164445 69 230 4.3 6.1 0.00 0.00 0.00 64 1015.6
20260510163940 69 188 0.9 0.9 0.00 0.00 0.00 64 1015.4
20260510163436 69 113 1.7 2.6 0.00 0.00 0.00 64 1015.5
20260510162931 69 126 0.9 1.7 0.00 0.00 0.00 66 1015.5
20260510162429 67 222 1.7 2.6 0.00 0.00 0.00 68 1015.7
20260510161925 67 225 4.3 5.2 0.00 0.00 0.00 68 1015.8
20260510161420 68 111 0.0 0.0 0.00 0.00 0.00 68 1015.8
20260510160918 68 155 3.5 3.5 0.00 0.00 0.00 69 1016.0
20260510160414 68 197 1.7 2.6 0.00 0.00 0.00 70 1015.7
20260510155907 67 72 2.6 2.6 0.00 0.00 0.00 71 1016.0
20260510155405 67 20 0.9 1.7 0.00 0.00 0.00 70 1016.1
20260510154900 66 106 0.9 1.7 0.00 0.00 0.00 70 1016.0
20260510154357 66 207 3.5 3.5 0.00 0.00 0.00 70 1015.8
20260510153850 66 138 0.9 1.7 0.00 0.00 0.00 71 1015.8
20260510153347 66 238 5.2 7.0 0.00 0.00 0.00 72 1015.8
20260510152844 66 211 5.2 6.1 0.00 0.00 0.00 73 1015.8
20260510152341 66 233 5.2 6.1 0.00 0.00 0.00 73 1015.7
20260510151837 66 175 1.7 2.6 0.00 0.00 0.00 74 1015.7
20260510151335 66 284 4.3 6.1 0.00 0.00 0.00 74 1015.7
20260510150831 65 118 1.7 1.7 0.00 0.00 0.00 76 1016.2
20260510150327 65 117 3.5 3.5 0.00 0.00 0.00 76 1015.8
20260510145823 64 131 0.0 0.0 0.00 0.00 0.00 77 1015.6
20260510145319 64 274 1.7 3.5 0.00 0.00 0.00 78 1016.0
20260510144816 64 167 4.3 6.1 0.00 0.00 0.00 79 1015.8
20260510144313 64 180 0.9 1.7 0.00 0.00 0.00 79 1015.5
20260510143812 64 202 1.7 2.6 0.00 0.00 0.00 81 1015.8
20260510143309 63 120 1.7 1.7 0.00 0.00 0.00 82 1016.0
20260510142806 63 228 4.3 6.1 0.00 0.00 0.00 83 1015.8
20260510142305 62 196 0.9 1.7 0.00 0.00 0.00 84 1015.8
20260510141800 62 258 3.5 3.5 0.00 0.00 0.00 85 1016.0
20260510141258 62 161 3.5 5.2 0.00 0.00 0.00 86 1015.7
20260510140754 61 156 2.6 3.5 0.00 0.00 0.00 87 1015.8
20260510140250 60 116 2.6 3.5 0.00 0.00 0.00 88 1015.7
20260510135744 60 155 3.5 5.2 0.00 0.00 0.00 90 1015.8
20260510135239 60 230 3.5 5.2 0.00 0.00 0.00 91 1015.8
20260510134737 60 210 1.7 1.7 0.00 0.00 0.00 92 1015.7
20260510134234 60 158 1.7 2.6 0.00 0.00 0.00 93 1015.7
20260510133730 59 157 5.2 6.1 0.00 0.00 0.00 93 1016.0
20260510133225 58 182 2.6 3.5 0.00 0.00 0.00 94 1016.0
20260510132722 58 160 5.2 7.0 0.00 0.00 0.00 94 1016.2
20260510132219 58 167 3.5 3.5 0.00 0.00 0.00 95 1016.1
20260510131716 58 204 3.5 5.2 0.00 0.00 0.00 95 1016.1
20260510131215 57 234 3.5 3.5 0.00 0.00 0.00 95 1016.2
20260510130710 57 186 4.3 6.1 0.00 0.00 0.00 96 1016.0
20260510130208 56 214 3.5 5.2 0.00 0.00 0.00 96 1016.1
20260510125704 56 176 2.6 2.6 0.00 0.00 0.00 96 1015.8
20260510125200 56 138 1.7 1.7 0.00 0.00 0.00 96 1016.2
20260510124657 56 219 1.7 2.6 0.00 0.00 0.00 97 1016.1
20260510124155 55 253 1.7 1.7 0.00 0.00 0.00 96 1016.0
20260510123650 55 162 1.7 1.7 0.00 0.00 0.00 97 1016.1
20260510123146 54 155 1.7 1.7 0.00 0.00 0.00 97 1015.8
20260510122643 54 147 1.7 1.7 0.00 0.00 0.00 97 1015.7
20260510122138 53 162 0.0 0.9 0.00 0.00 0.00 97 1015.6
20260510121635 53 167 1.7 2.6 0.00 0.00 0.00 97 1015.7
20260510121132 53 164 2.6 3.5 0.00 0.00 0.00 97 1015.6
20260510120630 53 156 1.7 1.7 0.00 0.00 0.00 97 1015.5
20260510120125 53 168 1.7 1.7 0.00 0.00 0.00 97 1015.7
20260510115622 52 141 0.0 0.0 0.00 0.00 0.00 97 1015.5
20260510115120 52 126 0.0 0.0 0.00 0.00 0.00 97 1015.8
20260510114615 52 126 0.0 0.0 0.00 0.00 0.00 97 1015.7
20260510114112 52 124 0.0 0.0 0.00 0.00 0.00 97 1015.5
20260510113607 52 107 0.0 0.0 0.00 0.00 0.00 97 1015.4
20260510113105 52 136 0.0 0.0 0.00 0.00 0.00 97 1015.4
20260510112601 52 146 0.0 0.0 0.00 0.00 0.00 97 1015.2
20260510112058 52 115 0.0 0.0 0.00 0.00 0.00 97 1015.3
20260510111554 52 128 0.0 0.0 0.00 0.00 0.00 97 1015.2
20260510111050 52 113 0.0 0.0 0.00 0.00 0.00 98 1015.1
20260510110541 51 94 0.0 0.9 0.00 0.00 0.00 98 1015.3
20260510110037 51 97 0.0 0.0 0.00 0.00 0.00 97 1014.9
20260510105533 51 100 0.0 0.0 0.00 0.00 0.00 97 1015.0
20260510105028 51 100 0.0 0.0 0.00 0.00 0.00 97 1014.9
20260510104525 51 111 0.0 0.0 0.00 0.00 0.00 97 1014.7
20260510104020 51 96 0.0 0.0 0.00 0.00 0.00 97 1014.9
20260510103518 51 109 0.0 0.0 0.00 0.00 0.00 97 1014.7
20260510103014 50 108 0.0 0.0 0.00 0.00 0.00 97 1014.8
20260510102510 50 115 0.0 0.0 0.00 0.00 0.00 97 1014.9
20260510102006 50 116 0.0 0.0 0.00 0.00 0.00 97 1015.0
20260510101504 50 107 0.0 0.0 0.00 0.00 0.00 97 1015.0
20260510101002 50 101 0.0 0.0 0.00 0.00 0.00 97 1014.7
20260510100458 50 107 0.0 0.0 0.00 0.00 0.00 97 1014.6
20260510095954 50 97 0.9 0.9 0.00 0.00 0.00 97 1014.6
20260510095450 50 99 0.0 0.0 0.00 0.00 0.00 97 1014.8
20260510094949 50 124 0.0 0.0 0.00 0.00 0.00 97 1014.6
20260510094444 50 130 0.0 0.0 0.00 0.00 0.00 97 1014.4
20260510093941 50 141 0.0 0.0 0.00 0.00 0.00 97 1014.3
20260510093436 50 107 0.9 0.9 0.00 0.00 0.00 97 1014.2
20260510092934 50 143 0.9 0.9 0.00 0.00 0.00 97 1014.3
20260510092431 50 132 0.0 0.9 0.00 0.00 0.00 97 1014.4
20260510091929 51 140 0.9 0.9 0.00 0.00 0.00 97 1014.5
20260510091427 51 153 1.7 1.7 0.00 0.00 0.00 97 1014.1
20260510090924 50 137 1.7 1.7 0.00 0.00 0.00 97 1014.0
20260510090420 50 159 3.5 3.5 0.00 0.00 0.00 97 1013.9
20260510085916 50 167 1.7 1.7 0.00 0.00 0.00 97 1014.1
20260510085412 50 102 0.0 0.0 0.00 0.00 0.00 97 1014.1
20260510084907 50 155 1.7 1.7 0.00 0.00 0.00 97 1014.3
20260510084405 50 159 2.6 2.6 0.00 0.00 0.00 97 1014.6
20260510083901 50 151 0.9 0.9 0.00 0.00 0.00 97 1014.4
20260510083358 50 160 1.7 1.7 0.00 0.00 0.00 97 1014.2
20260510082853 51 118 0.0 0.0 0.00 0.00 0.00 97 1014.5
20260510082350 51 128 1.7 2.6 0.00 0.00 0.00 97 1014.3
20260510081850 51 124 0.9 0.9 0.00 0.00 0.00 97 1014.3
20260510081346 51 81 1.7 1.7 0.00 0.00 0.00 97 1014.6
20260510080843 51 155 1.7 2.6 0.00 0.00 0.00 97 1015.0
20260510080342 51 155 0.9 0.9 0.00 0.00 0.00 97 1015.0
20260510075840 51 151 0.9 1.7 0.00 0.00 0.00 97 1014.9
20260510075337 51 152 2.6 3.5 0.00 0.00 0.00 97 1014.7
20260510074834 51 141 3.5 3.5 0.00 0.00 0.00 97 1014.6
20260510074331 51 135 1.7 1.7 0.00 0.00 0.00 97 1015.0
20260510073827 51 119 0.0 0.9 0.00 0.00 0.00 97 1015.2
20260510073317 51 136 0.9 0.9 0.00 0.00 0.00 97 1015.3
20260510072813 51 150 1.7 1.7 0.00 0.00 0.00 97 1015.2
20260510072310 51 141 0.9 0.9 0.00 0.00 0.00 97 1015.1
20260510071806 51 113 0.9 0.9 0.00 0.00 0.00 97 1015.0
20260510071303 51 111 0.0 0.0 0.00 0.00 0.00 97 1015.4
20260510070802 51 116 0.0 0.0 0.00 0.00 0.00 97 1015.3
20260510070258 51 119 0.0 0.0 0.00 0.00 0.00 97 1015.3
20260510065758 51 103 0.0 0.0 0.00 0.00 0.00 97 1015.0
20260510065255 51 102 0.9 0.9 0.00 0.00 0.00 97 1015.3
20260510064752 51 129 0.0 0.0 0.00 0.00 0.00 97 1014.7
20260510064250 50 131 0.9 0.9 0.00 0.00 0.00 97 1014.7
20260510063745 51 120 0.0 0.0 0.00 0.00 0.00 97 1014.8
20260510063242 51 116 0.0 0.0 0.00 0.00 0.00 97 1014.7
20260510062739 51 159 1.7 1.7 0.00 0.00 0.00 97 1014.7
20260510062234 50 146 0.9 1.7 0.00 0.00 0.00 97 1014.6
20260510061730 50 155 0.9 1.7 0.00 0.00 0.00 97 1014.6
20260510061227 50 124 0.0 0.9 0.00 0.00 0.00 96 1014.7
20260510060723 51 124 0.0 0.0 0.00 0.00 0.00 96 1014.5
20260510060220 51 107 0.0 0.0 0.00 0.00 0.00 96 1014.5
20260510055717 50 104 0.0 0.0 0.00 0.00 0.00 96 1014.7
20260510055215 50 99 0.0 0.0 0.00 0.00 0.00 96 1014.6
20260510054710 51 111 0.0 0.0 0.00 0.00 0.00 96 1014.8
20260510054206 50 105 0.0 0.0 0.00 0.00 0.00 96 1014.7
20260510053706 50 106 0.0 0.0 0.00 0.00 0.00 96 1014.8
20260510053203 50 107 0.0 0.0 0.00 0.00 0.00 96 1014.6
20260510052658 50 119 0.0 0.0 0.00 0.00 0.00 96 1014.6
20260510052154 50 128 0.0 0.0 0.00 0.00 0.00 96 1014.5
20260510051650 50 113 0.0 0.0 0.00 0.00 0.00 96 1014.3
20260510051147 50 118 0.0 0.0 0.00 0.00 0.00 96 1014.2
20260510050644 50 124 0.0 0.0 0.00 0.00 0.00 96 1014.6
20260510050142 50 136 0.0 0.0 0.00 0.00 0.00 96 1014.4
20260510045638 49 119 0.0 0.0 0.00 0.00 0.00 96 1014.5
20260510045135 50 130 0.0 0.0 0.00 0.00 0.00 96 1014.3
20260510044631 50 133 0.9 0.9 0.00 0.00 0.00 96 1014.3
20260510044128 50 130 0.0 0.0 0.00 0.00 0.00 96 1014.4
20260510043624 50 125 0.0 0.0 0.00 0.00 0.00 96 1014.4
20260510043121 50 121 0.0 0.0 0.00 0.00 0.00 96 1014.4
20260510042619 50 109 0.0 0.0 0.00 0.00 0.00 95 1014.2
20260510042114 50 126 0.0 0.0 0.00 0.00 0.00 96 1014.3
20260510041612 51 112 0.0 0.0 0.00 0.00 0.00 95 1014.4
20260510041109 50 117 0.0 0.0 0.00 0.00 0.00 95 1014.3
20260510040606 50 138 0.9 0.9 0.00 0.00 0.00 95 1014.4
20260510035558 51 149 0.9 0.9 0.00 0.23 0.23 95 1014.1
20260510035057 51 119 0.0 0.0 0.00 0.23 0.23 95 1014.1
20260510034556 51 138 0.9 0.9 0.00 0.23 0.23 95 1014.3
20260510034053 51 118 0.0 0.0 0.00 0.23 0.23 95 1014.2
20260510033549 52 146 0.9 0.9 0.00 0.23 0.23 95 1014.2
20260510033047 52 155 1.7 2.6 0.00 0.23 0.23 95 1014.0
20260510032543 52 126 0.0 0.9 0.00 0.23 0.23 95 1014.1
20260510032038 52 101 0.0 0.9 0.00 0.23 0.23 95 1014.0
20260510031533 52 155 0.0 0.9 0.00 0.23 0.23 95 1014.2
20260510031029 52 153 0.9 1.7 0.00 0.23 0.23 95 1014.3
20260510030525 52 111 0.0 0.9 0.00 0.23 0.23 95 1014.3
20260510030023 52 119 0.0 0.9 0.00 0.23 0.23 95 1014.5
20260510025520 52 120 1.7 2.6 0.00 0.23 0.23 95 1014.4
20260510025017 52 175 2.6 2.6 0.00 0.23 0.23 95 1014.4
20260510024514 52 145 0.9 1.7 0.00 0.23 0.23 95 1014.4
20260510024009 52 168 1.7 1.7 0.00 0.23 0.23 95 1014.4
20260510023500 52 147 0.9 0.9 0.00 0.23 0.23 95 1014.2
20260510022958 52 126 0.0 0.0 0.00 0.23 0.23 95 1014.4
20260510022457 52 169 1.7 1.7 0.00 0.23 0.23 95 1014.2
20260510021956 52 149 1.7 2.6 0.00 0.23 0.23 95 1014.2
20260510021454 52 173 2.6 2.6 0.00 0.23 0.23 95 1014.1
20260510020950 52 153 0.9 1.7 0.00 0.23 0.23 95 1014.0
20260510020445 52 128 0.0 0.9 0.00 0.23 0.23 95 1014.1
20260510015941 52 151 1.7 2.6 0.00 0.23 0.23 95 1014.1
20260510015437 52 94 2.6 3.5 0.00 0.23 0.23 95 1014.1
20260510014932 52 129 0.0 0.9 0.00 0.23 0.23 95 1014.2
20260510014430 52 164 2.6 2.6 0.00 0.23 0.23 94 1014.5
20260510013926 52 137 0.9 0.9 0.00 0.23 0.23 94 1014.3
20260510013421 51 126 0.0 0.0 0.00 0.23 0.23 94 1014.2
20260510012916 51 139 0.9 0.9 0.00 0.23 0.23 94 1014.1
20260510012412 51 120 0.0 0.0 0.00 0.23 0.23 94 1013.9
20260510011907 52 120 0.0 0.0 0.00 0.23 0.23 94 1013.8
20260510011402 52 132 0.9 0.9 0.00 0.23 0.23 94 1013.8
20260510010858 52 130 0.0 0.9 0.00 0.23 0.23 94 1013.8
20260510010356 52 117 0.0 0.0 0.00 0.23 0.23 93 1014.0
20260510005853 52 145 0.0 0.9 0.00 0.23 0.23 93 1013.8
20260510005349 52 116 0.0 0.0 0.00 0.23 0.23 93 1013.7
20260510004846 53 125 0.0 0.0 0.00 0.23 0.23 93 1013.8
20260510004344 52 124 0.0 0.0 0.00 0.23 0.23 93 1013.8
20260510003842 53 125 0.0 0.0 0.00 0.23 0.23 93 1013.8
20260510003338 53 131 0.0 0.9 0.00 0.23 0.23 93 1013.5
20260510002837 53 122 0.0 0.0 0.00 0.23 0.23 93 1013.4
20260510002334 53 155 0.9 0.9 0.00 0.23 0.23 92 1013.4
20260510001831 53 161 0.9 0.9 0.00 0.23 0.23 92 1013.3
20260510001329 53 126 0.0 0.0 0.00 0.23 0.23 92 1013.1
20260510000825 54 126 0.9 1.7 0.00 0.23 0.23 92 1013.2
20260510000322 54 164 0.9 1.7 0.00 0.23 0.23 92 1012.9
20260509235819 54 157 1.7 1.7 0.00 0.23 0.23 92 1013.0
20260509235316 54 131 1.7 1.7 0.00 0.23 0.23 92 1013.0
20260509234811 54 123 2.6 2.6 0.00 0.23 0.23 92 1013.0
20260509234308 55 152 1.7 2.6 0.00 0.23 0.23 92 1012.8
20260509233807 55 155 1.7 1.7 0.00 0.23 0.23 92 1012.9
20260509233304 55 175 3.5 3.5 0.00 0.23 0.23 92 1012.9
20260509232759 55 146 2.6 3.5 0.00 0.23 0.23 92 1013.1
20260509232257 55 96 2.6 3.5 0.00 0.23 0.23 92 1013.1
20260509231753 55 200 2.6 3.5 0.00 0.23 0.23 92 1013.0
20260509231250 55 149 0.9 1.7 0.00 0.23 0.23 92 1013.0
20260509230748 56 135 5.2 6.1 0.00 0.23 0.23 92 1013.1
20260509230245 56 158 2.6 2.6 0.00 0.23 0.23 92 1012.9
20260509225740 56 184 4.3 7.8 0.00 0.23 0.23 93 1012.9
20260509225236 56 94 1.7 2.6 0.00 0.23 0.23 93 1012.8
20260509224732 56 176 5.2 6.1 0.00 0.23 0.23 93 1013.1
20260509224230 56 180 1.7 3.5 0.00 0.23 0.23 93 1013.0
20260509223726 55 176 3.5 3.5 0.00 0.23 0.23 93 1013.0
20260509223223 55 163 2.6 2.6 0.00 0.23 0.23 93 1012.9
20260509222720 55 161 4.3 5.2 0.00 0.23 0.23 93 1012.6
20260509222215 55 180 2.6 2.6 0.00 0.23 0.23 94 1012.7
20260509221711 55 157 1.7 1.7 0.00 0.23 0.23 94 1012.9
20260509221207 55 173 6.1 7.0 0.00 0.23 0.23 93 1013.1
20260509220703 55 132 0.9 1.7 0.00 0.23 0.23 94 1013.0
20260509220200 55 130 1.7 1.7 0.00 0.23 0.23 94 1013.2
20260509215656 55 187 3.5 5.2 0.00 0.23 0.23 94 1013.3
20260509215152 55 159 4.3 5.2 0.00 0.23 0.23 94 1013.2
20260509214644 55 139 3.5 5.2 0.00 0.23 0.23 94 1013.3
20260509214141 55 151 3.5 5.2 0.00 0.23 0.23 94 1013.4
20260509213638 55 126 1.7 1.7 0.00 0.23 0.23 94 1013.4
20260509213133 55 183 4.3 5.2 0.00 0.23 0.23 94 1013.4
20260509212631 55 156 3.5 3.5 0.00 0.23 0.23 94 1013.4
20260509212128 55 165 4.3 6.1 0.00 0.23 0.23 94 1013.3
20260509211624 55 108 2.6 3.5 0.00 0.23 0.23 94 1013.4
20260509211120 55 139 1.7 3.5 0.00 0.23 0.23 94 1013.3
20260509210617 55 157 2.6 3.5 0.00 0.23 0.23 94 1013.5
20260509210115 55 146 2.6 2.6 0.00 0.23 0.23 94 1013.4
20260509205614 55 166 3.5 3.5 0.05 0.23 0.23 94 1013.7
20260509205104 55 141 1.7 1.7 0.05 0.23 0.23 94 1013.6
20260509204600 55 139 3.5 3.5 0.00 0.22 0.22 93 1013.9
20260509204056 55 111 1.7 2.6 0.07 0.22 0.22 93 1013.9
20260509203546 55 145 1.7 1.7 0.12 0.22 0.22 93 1014.0
20260509203045 55 108 1.7 1.7 0.05 0.21 0.21 93 1014.0
20260509202544 55 131 1.7 1.7 0.12 0.21 0.21 93 1014.1
20260509202040 55 120 0.9 0.9 0.14 0.20 0.20 93 1014.1
20260509201535 55 158 2.6 2.6 0.07 0.19 0.19 93 1014.3
20260509201033 55 136 0.0 0.0 0.05 0.18 0.18 93 1014.3
20260509200527 55 133 0.0 0.0 0.12 0.18 0.18 93 1014.3
20260509200024 55 134 1.7 1.7 0.07 0.17 0.17 93 1014.3
20260509195519 55 195 1.7 2.6 0.00 0.16 0.16 93 1014.5
20260509195014 55 131 1.7 1.7 0.05 0.16 0.16 93 1014.6
20260509194509 55 160 3.5 3.5 0.05 0.16 0.16 93 1014.5
20260509194006 55 168 1.7 2.6 0.05 0.16 0.16 93 1014.6
20260509193501 56 35 1.7 1.7 0.00 0.15 0.15 93 1014.7
20260509192957 55 139 0.9 0.9 0.07 0.15 0.15 93 1014.8
20260509192454 55 166 2.6 2.6 0.12 0.15 0.15 92 1014.8
20260509191949 56 52 0.9 1.7 0.05 0.14 0.14 92 1014.9
20260509191444 55 219 1.7 2.6 0.07 0.13 0.13 92 1015.1
20260509190940 56 156 1.7 2.6 0.12 0.13 0.13 92 1015.0
20260509190438 56 352 0.9 1.7 0.05 0.12 0.12 92 1015.1
20260509185935 56 133 1.7 1.7 0.07 0.11 0.11 92 1015.2
20260509185432 56 152 1.7 1.7 0.07 0.11 0.11 92 1015.2
20260509184929 57 197 1.7 2.6 0.00 0.10 0.10 92 1015.0
20260509184427 57 154 2.6 2.6 0.05 0.10 0.10 91 1015.0
20260509183923 56 110 0.9 0.9 0.05 0.10 0.10 91 1014.8
20260509183422 57 190 1.7 1.7 0.00 0.09 0.09 91 1014.8
20260509182920 57 270 1.7 1.7 0.07 0.09 0.09 91 1014.8
20260509182416 56 124 0.9 0.9 0.07 0.09 0.09 91 1014.5
20260509181914 57 160 0.9 1.7 0.07 0.08 0.08 90 1014.5
20260509181411 57 318 1.7 1.7 0.07 0.08 0.08 90 1014.6
20260509180908 57 144 0.9 0.9 0.05 0.07 0.07 90 1014.6
20260509180403 57 142 0.0 0.0 0.05 0.07 0.07 90 1014.4
20260509175855 57 138 0.0 0.0 0.07 0.06 0.06 90 1014.3
20260509175351 57 140 0.9 0.9 0.07 0.06 0.06 89 1014.5
20260509174847 57 141 0.0 0.9 0.00 0.05 0.05 89 1014.2
20260509174344 57 135 0.0 0.9 0.00 0.05 0.05 89 1014.3
20260509173839 57 121 0.9 0.9 0.00 0.05 0.05 89 1014.3
20260509173335 57 133 0.9 0.9 0.00 0.05 0.05 89 1014.4
20260509172831 57 115 0.9 0.9 0.00 0.05 0.05 89 1014.3
20260509172328 57 176 1.7 1.7 0.05 0.05 0.05 89 1014.4
20260509171824 57 107 0.0 0.9 0.05 0.05 0.05 89 1014.4
20260509171320 56 122 0.9 1.7 0.00 0.04 0.04 89 1014.4
20260509170816 57 188 3.5 3.5 0.00 0.04 0.04 89 1014.7
20260509170312 56 155 1.7 2.6 0.00 0.04 0.04 89 1014.6
20260509165812 57 135 0.9 0.9 0.00 0.04 0.04 88 1014.8
20260509165301 57 124 0.0 0.0 0.00 0.04 0.04 89 1014.6